Tracking 18843 objects as of 20-November-2017
HD Live streaming from Space Station
objects crossing your sky now

COSMOS 792

Track COSMOS 792 now!
10-day predictions
COSMOS 792 is classified as:


NORAD ID: 8608
Int'l Code: 1976-008B
Perigee: 1,442.9 km
Apogee: 1,497.3 km
Inclination: 74.1 °
Period: 115.2 minutes
Semi major axis: 7841 km
RCS: 0.6892 m2 (medium)
Launch date: January 28, 1976
Source: Commonwealth of Independent States (former USSR) (CIS)
Launch site: PLESETSK MISSILE AND SPACE COMPLEX (PKMTR)
aabbcc
Your satellite tracking list
Your tracking list is empty




NASA's NSSDC Master Catalog

Two Line Element Set (TLE):
1 08608U 76008B   17323.79842997  .00000006  00000-0  14459-3 0  9996
2 08608  74.0536 182.5866 0034712 163.3888 268.0995 12.50374381908661
Source of the keplerian elements: AFSPC